Location: Gez
(43.0167°N, 0.1000°W)
Time: 21:48:14
(UTC+00:00)

COSMOS 2455 - Visible Passes

Search period start: 18 November 2025 00:00
Search period end: 28 November 2025 00:00
Orbit: 897 x 910 km, 67.1° (Epoch: 18 November)

Date Brightness Start Highest point End Pass type
(mag) Time Alt. Az. Time Alt. Az. Time Alt. Az.
21 Nov 5.1 06:23:01 10° N 06:25:13 12° NNE 06:27:24 10° NE visible
22 Nov 5.0 06:26:10 10° N 06:29:22 14° NNE 06:32:34 10° ENE visible
23 Nov 5.0 06:29:30 10° N 06:33:29 18° NE 06:37:26 10° ENE visible
24 Nov 4.8 06:32:57 10° N 06:37:32 22° NE 06:42:05 10° E visible
27 Nov 5.2 04:59:43 10° N 05:01:45 12° NNE 05:03:46 10° NE visible
